Date,TemperatureHighF,TemperatureAvgF,TemperatureLowF,DewpointHighF,DewpointAvgF,DewpointLowF,HumidityHigh,HumidityAvg,HumidityLow,PressureMaxIn,PressureMinIn,WindSpeedMaxMPH,WindSpeedAvgMPH,GustSpeedMaxMPH,PrecipitationSumIn
2014-1-1,12.6,0.6,-11.6,-4.5,-8.8,-16.8,78,64,43,30.42,30.32,6,3,6,0.00
2014-1-2,18.3,4.2,-8.1,-2.1,-6.3,-14.8,78,62,35,30.38,30.30,6,3,6,0.00
2014-1-3,16.0,0.9,-15.9,10.7,-5.2,-20.6,83,75,65,34.52,29.69,19,4,19,0.00
2014-1-4,29.7,21.3,10.4,26.7,15.0,2.9,89,76,70,30.08,29.55,13,5,13,0.00
2014-1-5,10.2,0.1,-10.3,2.8,-9.1,-18.9,73,64,50,30.22,27.88,8,4,8,0.00
2014-1-6,-10.3,-17.3,-22.5,-18.9,-26.5,-33.3,68,61,46,30.10,30.02,13,6,13,0.00
2014-1-7,-0.9,-11.1,-20.7,-11.4,-19.4,-26.7,74,66,53,30.22,30.04,11,5,11,0.00
2014-1-8,93.2,-2.2,-11.9,71.2,-11.2,-16.9,80,65,43,30.41,29.42,6,2,6,0.00
2014-1-9,19.8,0.8,-19.8,10.1,-7.4,-24.6,81,69,41,29.96,29.60,10,2,10,0.00
2014-1-10,31.5,24.4,15.3,31.2,23.4,10.3,99,96,80,29.61,28.95,8,2,8,0.00
2014-1-11,31.6,29.4,27.3,31.4,28.3,25.3,99,96,89,29.18,28.90,0,0,0,0.00
2014-1-12,42.3,32.1,24.3,31.6,27.5,23.5,98,84,64,29.21,28.98,14,2,14,0.20
2014-1-13,38.1,33.1,23.2,32.1,27.2,17.4,88,79,65,29.19,28.98,9,4,11,0.07
2014-1-14,25.3,21.3,14.7,25.1,19.8,13.6,99,94,79,29.39,29.02,9,4,9,0.00
2014-1-15,16.7,12.2,7.7,13.6,8.7,3.2,95,86,66,29.53,29.14,12,3,12,0.00
2014-1-16,31.8,20.5,10.2,27.9,17.2,6.2,93,87,82,29.16,28.89,11,4,12,0.00
2014-1-17,33.4,16.1,6.6,21.9,12.0,3.7,93,84,60,29.41,29.16,7,3,7,0.00
2014-1-18,19.6,8.4,0.0,11.9,4.3,-2.6,89,83,65,29.40,29.24,8,2,8,0.00
2014-1-19,38.3,24.0,11.7,27.1,19.7,8.1,96,84,62,29.25,28.93,11,4,11,0.00
2014-1-20,28.0,13.1,0.1,26.8,7.5,-7.9,95,79,59,29.75,29.11,9,3,9,0.00
2014-1-21,13.6,-1.4,-10.3,-3.6,-10.4,-14.4,81,66,40,29.83,29.62,7,3,7,0.00
2014-1-22,8.6,0.6,-4.0,1.0,-5.8,-11.5,86,74,56,29.62,29.35,11,4,11,0.00
2014-1-23,14.5,-0.3,-11.0,-2.9,-9.1,-18.2,78,66,43,29.99,29.62,10,5,10,0.00
2014-1-24,26.1,8.9,-12.1,23.8,2.7,-18.3,96,76,59,29.86,28.85,17,6,17,0.00
2014-1-25,26.6,10.0,-2.2,23.3,-0.5,-12.5,89,62,44,29.27,28.84,11,6,13,0.00
2014-1-26,12.2,4.6,-1.5,8.1,-1.7,-11.5,86,75,60,29.21,28.80,13,4,13,0.00
2014-1-27,93.2,-7.6,-13.5,71.2,-18.1,-23.6,71,59,43,30.31,29.21,11,6,11,0.00
2014-1-28,1.2,-9.1,-19.5,-12.8,-18.3,-24.8,75,63,47,30.30,30.06,11,6,14,0.00
2014-1-29,21.2,6.1,-7.2,8.9,-5.0,-13.6,75,61,39,30.06,29.76,15,6,16,0.00
2014-1-30,27.5,23.1,10.8,25.3,16.3,4.4,97,76,59,29.89,29.50,14,4,14,0.00
2014-1-31,10.6,0.4,-9.8,4.6,-7.7,-15.2,80,68,51,30.15,29.89,8,3,8,0.00
2014-2-1,18.7,4.5,-11.4,9.3,-2.2,-16.3,83,73,54,30.11,29.95,5,2,5,0.00
2014-2-2,19.2,5.9,-6.2,3.8,-2.3,-11.6,88,70,40,30.28,30.08,8,3,8,0.00
2014-2-3,26.6,8.6,-7.8,10.2,-0.4,-12.0,86,68,45,30.30,30.22,14,3,14,0.00
2014-2-4,26.6,12.0,1.4,8.7,4.2,-1.5,88,72,44,30.43,30.28,4,1,4,0.00
2014-2-5,14.9,10.8,3.9,7.5,3.4,-1.8,79,71,60,30.40,30.26,9,4,9,0.00
2014-2-6,8.1,-0.7,-9.2,-1.7,-8.3,-12.6,84,70,52,30.39,30.22,11,5,11,0.00
2014-2-7,15.3,2.1,-7.1,-3.0,-7.4,-11.5,83,65,42,30.23,30.14,14,6,14,0.00
2014-2-8,19.4,7.4,-7.2,5.4,-0.1,-10.6,87,72,49,30.22,30.11,8,2,8,0.00
2014-2-9,21.6,9.9,-1.5,7.3,1.5,-9.8,87,69,49,30.27,30.10,10,3,10,0.00
2014-2-10,12.2,-0.0,-9.2,-6.3,-10.4,-14.6,76,61,41,30.43,30.27,8,3,8,0.00
2014-2-11,20.3,1.5,-16.6,-1.3,-9.1,-21.4,81,62,34,30.47,30.25,11,2,11,0.00
2014-2-12,22.6,9.5,2.1,11.3,3.0,-5.9,89,75,60,30.26,29.99,12,3,12,0.00
2014-2-13,23.2,14.7,0.1,22.5,12.4,-3.4,97,90,81,29.99,29.48,17,3,17,0.00
2014-2-14,28.8,16.8,6.8,15.4,8.4,0.3,86,70,47,29.97,29.56,10,4,10,0.00
2014-2-15,23.7,7.5,-8.5,10.2,0.0,-11.9,90,73,43,30.06,29.93,8,2,9,0.00
2014-2-16,33.6,15.8,7.7,12.3,8.1,4.6,92,73,35,30.27,29.95,10,2,10,0.00
2014-2-17,25.2,17.8,9.9,23.7,15.7,5.4,97,91,79,30.25,29.73,17,3,17,0.00
2014-2-18,40.6,25.9,15.1,29.7,22.7,14.0,99,88,64,29.85,29.59,12,2,12,0.02
2014-2-19,36.0,29.8,23.7,27.3,23.7,20.2,86,78,62,29.85,29.65,8,4,9,0.01
2014-2-21,26.6,26.6,26.6,24.4,24.4,24.4,91,91,91,29.14,29.14,12,10,21,0.00
2014-2-24,17.2,11.4,7.9,1.9,0.5,-2.0,70,61,49,30.22,30.17,11,5,11,0.00
2014-2-25,10.8,5.3,-1.7,0.4,-4.5,-9.8,85,64,45,30.21,30.11,10,5,10,0.00
2014-2-26,10.6,1.1,-10.7,5.9,-9.1,-17.9,86,63,35,30.18,29.55,21,7,21,0.00
2014-2-27,7.2,-1.6,-12.6,-1.1,-16.4,-24.9,78,49,27,30.17,29.62,12,4,13,0.00
2014-2-28,12.4,-1.5,-21.5,9.1,-9.3,-27.6,91,70,43,30.17,29.96,12,2,12,0.00
2014-3-1,12.2,7.1,2.3,8.8,-1.0,-7.6,89,69,49,30.37,30.03,7,4,7,0.00
2014-3-2,7.9,-0.5,-8.7,-7.3,-16.9,-21.1,63,46,26,30.45,30.35,8,4,8,0.00
2014-3-3,17.2,3.7,-13.4,3.1,-10.6,-20.6,75,52,33,30.50,30.32,8,2,8,0.00
2014-3-4,22.1,12.8,7.5,9.4,6.2,3.1,88,75,55,30.32,30.18,4,1,4,0.00
2014-3-5,22.8,11.1,-0.2,5.8,1.0,-8.0,87,65,39,30.53,30.30,11,3,11,0.00
2014-3-6,30.0,10.3,-9.9,14.1,1.9,-14.2,82,70,48,30.48,30.00,16,3,16,0.00
2014-3-7,38.8,27.9,17.4,28.7,21.1,12.5,84,76,60,30.05,29.84,10,3,10,0.00
2014-3-8,39.7,26.2,17.4,25.0,14.3,10.2,79,62,31,30.27,30.05,8,4,8,0.00
2014-3-9,43.9,28.9,14.7,32.1,19.3,9.2,86,68,50,30.21,29.70,18,5,18,0.00
2014-3-10,57.9,44.2,33.6,37.3,33.6,-2.4,92,68,19,29.70,29.56,9,4,9,0.00
2014-3-11,47.7,42.5,34.3,33.3,30.4,25.6,80,63,46,29.89,29.67,5,2,5,0.00
2014-3-12,34.3,25.5,12.9,28.2,10.2,-9.4,92,57,18,30.12,29.87,8,3,8,0.00
2014-3-13,41.5,23.4,4.1,31.0,14.1,-0.4,84,68,50,30.11,29.70,15,3,15,0.00
2014-3-14,46.8,40.1,34.9,35.4,32.4,25.2,90,74,61,29.79,29.48,14,5,14,0.00
2014-3-15,39.4,30.6,18.1,26.2,16.5,4.7,77,57,37,30.41,29.79,8,4,9,0.00
2014-3-16,24.6,14.1,4.1,8.6,0.4,-6.0,79,56,27,30.50,30.22,10,3,10,0.00
2014-3-17,29.8,20.2,11.3,18.6,11.9,3.8,83,71,51,30.19,29.77,16,4,16,0.00
2014-3-18,40.3,30.1,20.1,32.0,25.6,18.1,98,84,69,29.88,29.77,8,3,14,0.00
2014-3-19,41.0,33.4,30.2,35.4,30.2,24.7,99,88,73,29.92,29.68,9,3,9,0.15
2014-3-20,43.2,34.0,27.0,26.4,22.3,19.1,80,63,40,30.03,29.92,8,2,8,0.00
2014-3-21,43.7,32.1,18.7,32.7,25.5,17.3,97,78,55,30.03,29.76,16,2,16,0.00
2014-3-22,35.2,28.8,16.3,33.4,17.7,5.2,99,65,42,30.38,29.85,9,5,9,0.01
2014-3-23,24.4,15.8,7.3,7.5,4.1,1.8,78,60,40,30.45,30.36,8,4,8,0.00
2014-3-24,32.4,19.7,7.7,24.1,10.7,2.4,93,69,44,30.37,30.03,11,4,11,0.00
2014-3-25,22.6,16.5,10.8,15.4,4.7,-1.3,86,61,39,30.21,30.00,11,5,11,0.00
2014-3-26,33.4,20.6,5.7,27.2,8.9,-0.4,96,61,42,30.24,29.91,15,4,17,0.00
2014-3-27,36.9,33.6,28.0,36.4,31.7,24.9,99,93,79,29.92,29.50,10,3,13,0.64
2014-3-28,46.9,35.8,29.7,33.2,27.3,23.0,99,74,41,30.22,29.51,11,3,11,0.04
2014-3-29,48.7,35.3,28.9,27.9,24.4,19.6,91,67,35,30.32,30.19,7,2,7,0.00
2014-3-30,59.2,40.7,25.5,37.7,28.7,21.9,87,65,37,30.25,29.96,13,3,15,0.00
2014-3-31,57.9,47.4,37.0,42.3,37.1,34.4,92,69,52,30.02,29.60,13,3,14,0.00
2014-4-1,53.6,34.1,27.0,41.1,26.6,18.4,91,74,59,30.06,29.54,18,7,18,0.00
2014-4-2,48.9,34.8,22.3,25.9,20.5,16.0,83,59,32,30.23,30.06,8,3,8,0.00
2014-4-3,35.4,31.8,28.0,27.6,24.0,21.0,87,73,59,30.20,29.83,11,6,11,0.01
2014-4-4,34.0,31.5,28.2,33.6,30.4,26.2,99,96,81,29.96,29.52,12,2,12,0.27
2014-4-5,52.3,38.0,25.2,32.1,27.2,23.7,94,68,40,30.17,29.95,10,3,10,0.06
2014-4-6,62.1,47.1,33.4,39.6,33.0,25.4,75,60,38,30.10,29.88,17,4,17,0.00
2014-4-7,62.2,47.4,34.9,46.8,40.0,31.8,96,77,49,29.93,29.70,5,1,7,0.02
2014-4-8,60.6,46.5,36.9,41.0,35.0,27.3,95,66,36,29.97,29.71,8,4,8,0.01
2014-4-9,62.1,46.4,28.0,33.4,28.1,23.1,89,54,23,29.99,29.66,19,4,19,0.00
2014-4-10,62.8,55.3,41.5,41.6,27.7,12.2,65,37,16,29.95,29.57,16,6,16,0.00
2014-4-11,60.4,46.8,35.6,43.0,29.8,19.3,75,52,34,30.05,29.95,14,2,14,0.00
2014-4-12,44.8,41.2,39.0,41.1,38.1,33.4,99,89,69,30.05,29.78,9,3,9,0.46
2014-4-13,51.3,42.8,37.0,46.7,41.7,35.9,99,96,82,29.86,29.70,10,3,10,0.53
2014-4-14,38.7,31.2,19.0,36.3,28.7,17.4,99,91,75,30.06,29.63,11,1,11,0.13
2014-4-15,39.6,24.0,10.8,31.0,17.1,9.2,95,77,48,30.19,30.05,0,0,0,0.00
2014-4-16,42.8,31.5,18.0,32.1,24.7,15.3,93,77,59,30.28,30.09,20,3,20,0.01
2014-4-17,53.1,41.5,34.2,39.8,34.2,26.8,98,76,57,30.32,30.05,15,4,15,0.04
2014-4-18,57.0,42.4,28.0,32.5,26.4,16.0,87,58,22,30.41,30.31,8,3,8,0.00
2014-4-19,62.2,45.6,30.6,40.5,32.6,26.8,92,63,41,30.44,30.16,17,6,17,0.00
2014-4-20,61.5,54.6,50.2,57.3,47.6,38.4,99,79,58,30.17,30.03,8,2,8,0.24
2014-4-21,72.5,59.3,50.2,60.8,50.7,34.3,99,78,27,30.03,29.80,11,3,12,0.05
2014-4-22,55.2,45.6,37.6,36.0,29.0,24.2,73,54,32,30.14,29.93,11,5,11,0.00
2014-4-23,93.2,42.3,28.4,71.2,26.8,20.7,94,57,31,30.22,29.66,11,2,11,0.00
2014-4-24,43.3,40.2,36.1,41.6,31.8,10.9,99,77,28,29.85,29.47,15,4,15,0.54
2014-4-25,61.2,47.9,38.8,46.4,40.0,31.4,99,77,45,29.62,29.44,20,4,20,0.02
2014-4-26,54.0,42.6,31.6,33.8,31.4,28.5,88,66,42,29.88,29.61,11,4,11,0.00
2014-4-27,43.3,37.8,32.7,37.8,32.7,25.2,99,82,64,29.90,29.70,22,5,22,0.31
2014-4-28,47.5,41.7,38.1,39.5,35.6,30.5,97,79,58,29.72,29.49,16,7,17,0.27
2014-4-29,41.9,39.6,36.7,41.6,39.2,36.2,99,98,92,29.52,29.32,12,4,15,0.63
2014-4-30,53.2,46.3,41.9,51.8,44.6,38.5,99,94,76,29.46,29.39,10,2,12,0.19
2014-5-1,52.2,44.7,39.2,45.3,41.7,38.8,99,90,70,29.51,29.37,6,2,7,0.05
2014-5-2,52.7,46.3,42.8,44.9,42.3,40.3,99,87,70,29.52,29.42,9,3,9,0.02
2014-5-3,60.4,49.7,42.6,44.5,39.3,30.8,99,72,34,29.59,29.38,11,4,11,0.01
2014-5-4,65.5,51.1,38.8,36.8,28.7,15.2,73,46,15,29.83,29.58,11,4,11,0.00
2014-5-5,59.7,47.4,40.5,40.0,36.6,33.3,84,67,44,29.87,29.75,11,4,11,0.00
2014-5-6,60.6,48.8,35.8,39.3,36.1,31.9,99,65,37,29.85,29.72,15,4,15,0.00
2014-5-7,50.7,46.8,43.2,47.8,42.6,33.5,99,86,59,29.81,29.60,16,5,16,0.09
2014-5-8,71.4,57.8,46.6,64.8,54.1,46.0,99,88,72,29.63,29.41,12,3,12,0.00
2014-5-9,70.5,60.4,50.5,63.9,53.3,43.4,91,78,63,29.52,29.31,17,6,17,0.00
2014-5-10,79.5,59.1,42.8,43.6,35.0,16.5,89,50,10,29.69,29.52,10,4,10,0.00
2014-5-11,80.6,65.4,54.7,64.3,52.0,35.5,99,65,37,29.70,29.63,13,2,13,0.09
2014-5-12,77.2,61.0,53.4,68.3,59.8,53.2,99,96,73,29.67,29.52,12,3,12,0.73
2014-5-13,66.0,55.2,47.1,64.7,49.6,40.4,99,82,58,29.87,29.47,14,5,14,0.01
2014-5-14,64.8,52.4,40.8,40.9,35.3,27.9,89,57,27,29.96,29.82,10,3,10,0.00
2014-5-15,57.0,47.3,38.5,41.1,32.3,27.4,87,57,36,29.85,29.73,10,4,10,0.01
2014-5-16,53.1,43.2,29.7,33.5,29.1,25.3,86,59,38,29.82,29.76,8,2,8,0.00
2014-5-17,64.6,50.5,34.5,35.9,30.8,25.9,87,52,26,29.80,29.74,12,3,12,0.00
2014-5-18,76.5,60.4,44.2,41.8,35.2,29.5,69,43,19,29.87,29.80,11,4,11,0.00
2014-5-19,67.1,55.5,49.6,52.1,43.6,35.6,99,68,38,29.92,29.71,21,4,21,0.94
2014-5-20,80.6,61.8,48.7,64.1,56.0,48.5,99,83,54,29.71,29.59,9,2,14,0.01
2014-5-21,76.8,65.4,52.9,64.5,53.7,46.0,99,71,35,30.02,29.59,11,3,11,0.00
2014-5-22,73.4,60.6,50.5,50.2,47.1,43.2,88,63,37,30.16,30.02,8,3,8,0.00
2014-5-23,76.5,60.7,44.4,49.2,45.2,40.4,88,59,35,30.24,30.16,11,2,11,0.00
2014-5-24,84.4,66.6,47.7,52.0,46.2,42.2,88,53,24,30.24,30.10,11,2,11,0.00
2014-5-25,88.9,70.5,50.4,54.0,48.1,40.8,85,51,19,30.14,29.96,13,2,13,0.00
2014-5-26,87.8,74.6,60.6,69.6,63.0,53.0,99,69,48,29.99,29.87,11,3,11,0.00
2014-5-27,78.4,68.5,63.9,69.9,64.5,53.3,99,88,59,29.99,29.87,12,2,12,0.00
2014-5-28,78.3,64.8,56.3,54.7,49.3,36.9,79,58,42,30.14,29.99,9,2,9,0.00
2014-5-29,85.3,66.9,48.6,59.0,52.2,44.0,99,65,27,30.19,30.10,8,2,9,0.00
2014-5-30,88.3,70.5,52.0,61.5,54.4,42.8,99,64,22,30.23,30.14,14,2,14,0.00
2014-5-31,90.0,73.3,54.0,59.8,55.3,50.8,99,59,27,30.19,30.02,14,3,14,0.00
2014-6-1,83.7,69.9,61.9,76.1,64.8,55.8,99,85,57,30.04,29.81,18,3,18,0.00
2014-6-2,81.7,70.6,66.9,71.2,67.1,61.0,99,90,59,29.83,29.67,16,4,16,0.11
2014-6-3,79.2,67.8,58.8,61.4,54.7,49.7,85,64,41,29.93,29.71,17,4,17,0.01
2014-6-4,81.9,67.6,56.3,57.4,53.0,44.6,99,64,31,29.93,29.87,15,2,15,0.00
2014-6-5,82.6,66.8,53.2,64.4,56.9,51.6,99,73,41,30.01,29.90,9,2,9,0.38
2014-6-6,88.0,72.0,60.3,62.1,57.8,54.2,87,64,32,29.99,29.92,9,2,9,0.00
2014-6-7,83.1,65.9,57.7,67.4,61.0,57.5,99,86,49,30.00,29.89,13,2,13,0.09
2014-6-8,81.9,66.2,54.5,58.7,50.3,40.4,99,64,25,30.10,29.97,8,2,11,0.01
2014-6-9,79.3,65.5,54.1,50.9,46.4,32.5,83,54,23,30.10,29.99,7,2,8,0.00
2014-6-10,75.6,63.7,49.8,55.9,51.8,48.6,99,68,40,30.03,29.92,7,2,7,0.00
2014-6-11,81.0,67.3,56.1,56.8,53.1,48.7,82,62,39,29.92,29.77,11,2,11,0.00
2014-6-12,73.8,63.0,54.5,62.5,53.9,47.3,99,75,43,29.84,29.71,11,4,11,0.00
2014-6-13,77.7,61.7,48.7,47.7,42.6,33.8,85,54,22,30.01,29.83,14,4,14,0.00
2014-6-14,77.5,62.0,46.9,53.6,48.6,44.3,96,65,41,30.10,29.91,14,3,14,0.00
2014-6-15,83.8,68.3,55.2,68.8,57.2,46.7,87,68,54,29.96,29.70,21,5,24,0.18
2014-6-16,90.3,73.5,59.0,64.6,58.4,51.6,95,64,28,30.00,29.86,13,2,14,0.00
2014-6-17,92.1,75.2,63.7,70.8,66.9,63.3,99,78,44,29.92,29.72,11,2,13,0.71
2014-6-18,79.9,69.8,64.0,70.3,67.3,63.8,99,92,70,30.08,29.85,17,3,17,0.70
2014-6-19,76.8,68.0,61.5,65.0,63.3,61.1,99,86,65,30.17,30.05,15,4,15,0.08
2014-6-20,77.7,64.8,59.4,68.5,62.6,59.1,99,93,71,30.06,29.95,8,2,8,0.05
2014-6-21,83.1,65.1,58.5,70.0,63.1,58.2,99,94,60,30.00,29.88,8,2,9,0.00
2014-6-22,78.3,67.9,63.1,67.2,65.0,62.9,99,91,68,29.96,29.86,8,2,8,0.00
2014-6-23,86.7,72.2,64.2,72.1,67.1,64.0,99,86,56,29.89,29.81,6,1,8,0.01
2014-6-24,91.4,74.9,63.5,71.0,65.6,55.8,99,77,35,29.96,29.84,7,1,7,0.00
2014-6-25,80.2,68.4,62.2,66.5,62.9,60.1,99,84,54,30.08,29.95,8,2,8,0.00
2014-6-26,79.3,67.9,57.7,64.1,60.8,57.5,99,80,57,30.11,30.01,8,2,8,0.00
2014-6-27,88.2,71.4,59.2,72.4,65.9,58.9,99,84,57,30.06,29.92,15,4,15,0.09
2014-6-28,88.0,78.1,69.6,74.8,71.5,68.3,98,81,62,29.98,29.83,17,5,17,0.00
2014-6-29,90.0,75.1,65.8,72.5,68.2,63.6,99,81,48,29.86,29.77,17,4,17,0.26
2014-6-30,85.3,72.2,65.7,74.7,68.7,65.2,99,89,68,29.81,29.49,19,4,22,0.09
2014-7-1,80.2,68.9,63.1,68.0,63.8,61.4,99,85,61,29.69,29.56,12,4,12,0.09
2014-7-2,93.2,64.5,57.9,71.2,56.9,43.5,99,78,42,30.03,29.69,8,3,8,0.05
2014-7-3,82.0,64.0,46.2,58.0,50.3,42.4,91,64,36,30.17,30.03,6,1,6,0.00
2014-7-4,83.8,67.9,49.8,59.0,50.2,42.2,95,60,26,30.31,30.17,11,2,11,0.00
2014-7-5,83.5,69.9,56.7,63.6,58.8,50.6,92,69,50,30.22,29.96,19,4,19,0.00
2014-7-6,80.1,71.3,65.3,74.7,68.5,61.8,99,91,78,29.98,29.63,16,3,16,0.00
2014-7-7,88.5,73.8,62.6,72.6,65.4,61.3,99,78,46,29.73,29.61,14,3,14,0.22
2014-7-8,77.7,67.3,60.3,67.4,62.1,57.3,99,85,52,29.83,29.57,10,3,10,0.05
2014-7-9,75.6,64.8,56.1,59.9,55.3,50.7,97,74,43,30.06,29.83,9,2,9,0.01
2014-7-10,83.8,69.5,49.5,63.2,57.8,49.2,99,69,43,30.15,30.06,11,3,11,0.00
2014-7-11,93.2,71.2,61.5,71.2,61.4,57.3,99,73,46,30.14,29.74,17,3,17,0.00
2014-7-12,79.7,71.0,64.6,73.1,66.6,60.6,99,86,73,29.97,29.81,7,2,7,0.04
2014-7-13,81.9,70.3,59.4,66.2,57.2,40.3,99,70,26,29.90,29.85,8,3,8,0.00
2014-7-14,74.1,61.8,54.3,59.7,53.9,50.3,93,76,46,29.89,29.83,9,2,9,0.02
2014-7-15,71.6,59.2,51.6,58.3,52.8,48.4,99,81,44,29.98,29.86,11,3,11,0.12
2014-7-16,80.2,61.8,46.4,54.6,49.8,45.7,99,70,30,30.04,29.98,4,1,6,0.00
2014-7-17,83.7,66.6,50.4,58.0,52.4,48.0,94,64,33,30.09,30.02,11,2,11,0.00
2014-7-18,81.5,67.7,52.0,63.6,57.7,50.4,96,72,51,30.16,30.05,9,2,9,0.00
2014-7-19,66.9,62.1,59.0,61.8,59.9,58.1,99,93,81,30.07,30.04,6,1,6,0.00
2014-7-20,85.3,73.0,61.0,67.7,64.1,59.6,96,75,54,30.03,29.95,11,3,11,0.00
2014-7-21,90.7,81.8,65.7,72.6,70.4,64.5,96,70,53,30.03,29.98,11,4,11,0.00
2014-7-22,93.2,79.5,67.5,77.6,70.5,62.1,93,76,45,30.08,29.86,12,4,12,0.00
2014-7-23,82.6,69.4,56.7,62.1,57.4,52.4,99,69,38,30.22,30.07,7,2,52,0.00
2014-7-24,84.4,68.2,53.4,59.3,55.1,50.5,99,67,34,30.21,29.99,9,1,9,0.00
2014-7-25,72.5,66.3,61.0,65.0,61.5,58.3,96,84,74,30.02,29.85,12,2,12,0.02
2014-7-26,87.4,73.5,64.0,72.6,67.8,63.2,99,83,57,29.88,29.76,8,2,8,0.00
2014-7-27,79.5,69.4,59.4,69.6,62.9,53.0,99,80,53,30.00,29.71,9,3,9,0.02
2014-7-28,79.3,64.4,51.4,56.6,53.9,51.2,99,72,39,30.13,30.00,6,2,6,0.00
2014-7-29,82.2,66.7,57.7,63.1,57.8,55.3,99,76,43,30.05,29.96,7,2,7,0.11
2014-7-30,81.7,67.0,54.0,61.5,55.3,45.4,99,71,30,30.07,29.98,8,1,8,0.00
2014-7-31,86.2,69.6,59.0,66.3,61.3,56.9,99,78,44,30.00,29.95,8,2,8,0.00
2014-8-1,86.7,66.9,58.3,68.8,62.2,57.6,99,87,46,30.10,29.99,8,1,8,0.07
2014-8-2,91.6,71.8,55.4,67.6,59.6,52.3,99,72,30,30.17,30.08,8,1,8,0.01
2014-8-3,91.8,74.7,60.3,70.1,64.1,58.5,99,73,34,30.12,30.03,8,2,8,0.00
2014-8-4,77.0,67.7,62.2,69.2,65.2,61.8,99,92,73,30.13,30.04,11,2,11,0.09
2014-8-5,83.5,70.1,59.7,65.4,60.7,57.3,99,76,42,30.12,30.06,7,1,7,0.00
2014-8-6,89.1,72.0,57.4,64.2,59.6,54.8,99,70,33,30.10,30.05,4,1,4,0.00
2014-8-7,84.7,70.1,56.3,60.9,57.8,52.2,99,70,33,30.16,30.07,11,2,11,0.00
2014-8-8,88.2,69.7,8.6,62.6,57.5,-36.6,99,71,10,30.17,30.08,10,2,10,0.00
2014-8-9,85.5,70.1,56.5,64.0,60.3,56.2,99,74,42,30.18,30.10,11,2,11,0.00
2014-8-10,87.1,70.3,56.5,65.0,60.3,56.2,99,75,40,30.13,30.00,8,1,8,0.00
2014-8-11,83.7,67.0,60.3,67.4,62.7,60.0,99,88,52,30.01,29.85,9,2,9,1.37
2014-8-12,77.9,64.4,55.4,60.4,54.3,48.3,99,74,39,29.97,29.87,11,4,12,0.02
2014-8-13,83.8,69.4,58.1,63.3,56.0,49.0,95,65,33,30.11,29.95,5,2,5,0.00
2014-8-14,79.9,64.8,46.9,53.3,49.5,43.8,98,62,30,30.16,30.05,6,1,6,0.00
2014-8-15,85.3,66.4,48.0,64.7,55.9,47.7,99,73,38,30.06,29.90,6,1,8,0.00
2014-8-16,88.9,71.2,64.0,72.6,67.9,63.7,99,90,57,29.97,29.85,8,2,11,0.32
2014-8-17,77.9,65.1,57.2,64.9,59.5,56.3,99,84,54,30.07,29.96,8,2,8,0.00
2014-8-18,75.2,62.8,56.8,70.8,62.0,56.6,99,97,84,29.98,29.70,11,2,11,1.24
2014-8-19,80.8,68.6,62.6,71.6,65.4,62.3,99,91,62,29.77,29.63,8,2,8,0.43
2014-8-20,82.8,67.3,60.4,66.9,63.4,60.2,99,89,56,29.95,29.76,5,1,5,0.01
2014-8-21,71.2,66.0,61.3,71.0,65.7,60.9,99,99,98,29.98,29.89,8,1,8,0.22
2014-8-22,88.3,73.7,67.1,80.3,71.9,66.8,99,94,70,30.00,29.89,7,1,7,0.17
2014-8-23,76.8,72.2,69.6,76.3,71.8,69.4,99,99,96,30.04,29.97,6,2,6,0.00
2014-8-24,81.0,72.4,67.1,73.7,70.3,66.8,99,93,75,30.05,29.96,12,3,12,0.00
2014-8-25,89.1,76.7,66.2,76.4,72.7,65.9,99,88,64,30.08,29.93,11,2,11,0.83
2014-8-26,80.4,69.0,62.2,72.6,61.0,56.2,99,77,48,30.15,29.96,7,2,7,0.00
2014-8-27,80.4,66.3,-2.4,63.6,57.8,-5.2,98,76,49,30.21,30.11,49,1,49,0.00
2014-8-28,74.3,64.8,55.4,64.1,60.6,54.6,99,87,70,30.16,30.03,11,2,11,0.01
2014-8-29,85.8,73.8,59.0,76.1,69.5,58.7,99,87,70,30.04,29.79,9,3,9,0.40
2014-8-30,78.8,68.9,62.6,72.6,67.7,62.3,99,96,79,29.91,29.73,7,2,7,1.32
2014-8-31,85.3,70.1,62.1,71.2,66.2,61.6,99,89,58,29.95,29.77,8,2,8,0.01
2014-9-1,77.4,69.4,62.4,71.0,66.0,60.4,99,89,69,29.80,29.65,9,2,9,0.12
2014-9-2,80.8,66.4,57.4,68.7,61.5,57.1,99,86,51,29.91,29.79,7,2,8,0.13
2014-9-3,85.6,59.0,7.9,65.3,40.3,7.3,99,51,35,29.99,29.83,49,23,49,0.00
2014-9-4,76.8,69.2,66.4,70.2,67.5,65.0,99,95,76,29.94,29.80,14,3,14,0.71
2014-9-5,74.5,67.1,57.6,74.2,62.9,55.4,99,87,64,30.11,29.78,9,3,9,0.02
2014-9-6,78.6,62.2,49.8,57.8,54.0,49.6,99,78,42,30.16,30.11,8,2,8,0.00
2014-9-7,84.0,65.5,51.1,62.9,55.4,50.8,99,74,37,30.18,30.09,6,1,8,0.00
2014-9-8,77.2,64.4,53.2,61.1,56.5,53.0,99,78,46,30.11,29.95,13,2,15,0.00
2014-9-9,84.9,67.4,-10.5,68.7,60.1,-51.7,99,80,10,29.98,29.83,8,2,8,0.00
2014-9-10,68.9,60.3,45.3,68.6,59.4,41.7,99,97,86,29.93,29.47,12,3,12,0.79
2014-9-11,60.4,48.2,43.3,46.2,42.4,39.4,96,81,56,30.31,29.93,7,3,9,0.00
2014-9-12,50.7,44.0,39.0,43.5,41.8,38.8,99,93,68,30.41,30.30,5,1,5,0.15
2014-9-13,62.2,48.3,39.2,49.8,41.3,36.8,99,80,41,30.34,30.25,11,1,12,0.00
2014-9-14,69.3,54.4,43.2,52.7,46.6,41.6,96,77,49,30.28,30.06,17,3,17,0.00
2014-9-15,66.7,54.5,48.0,54.4,49.9,42.5,99,86,53,30.17,30.09,6,1,6,0.08
2014-9-16,70.7,53.1,38.8,48.9,44.0,38.6,99,75,41,30.19,30.04,7,2,8,0.00
2014-9-17,76.1,57.9,44.4,54.9,49.8,43.6,98,77,44,30.05,29.95,6,2,6,0.00
2014-9-18,59.5,49.8,43.3,52.0,46.2,41.5,99,88,70,30.22,30.06,6,2,8,0.00
2014-9-19,74.1,60.2,47.8,58.1,53.2,47.6,99,80,53,30.15,29.80,17,5,21,0.00
2014-9-20,78.4,67.7,57.7,68.1,62.4,55.8,99,84,63,29.80,29.69,9,4,14,0.35
2014-9-21,63.3,55.0,45.0,57.5,49.8,41.7,99,84,52,30.18,29.67,9,3,9,0.07
2014-9-22,72.1,54.4,39.6,54.2,47.5,39.0,99,80,48,30.24,30.15,7,1,7,0.00
2014-9-23,80.8,61.4,47.1,62.0,53.1,46.9,99,78,41,30.30,30.20,8,1,8,0.00
2014-9-24,74.7,59.1,48.4,58.4,54.1,48.1,99,85,55,30.33,30.24,10,1,10,0.00
2014-9-25,81.5,64.2,55.4,61.1,57.2,52.5,99,81,37,30.29,30.21,6,1,6,0.00
2014-9-26,93.2,62.4,48.7,71.2,55.3,48.5,99,81,44,30.29,29.60,8,1,8,0.00
2014-9-27,85.3,65.5,51.6,65.1,58.2,51.4,99,80,43,29.97,29.85,7,1,10,0.00
2014-9-28,88.7,68.1,53.4,66.1,60.2,53.2,99,79,42,29.89,29.74,7,1,7,0.00
2014-9-29,68.9,56.8,45.0,63.0,54.7,41.3,99,93,80,29.80,29.68,5,2,8,0.14
2014-9-30,52.9,45.4,41.2,44.9,41.9,38.4,95,88,71,29.83,29.73,7,2,9,0.01
2014-10-1,67.3,54.7,45.9,55.2,50.7,45.0,99,87,62,29.75,29.56,13,3,13,0.01
2014-10-2,72.9,61.6,54.9,63.6,59.1,54.3,99,92,68,29.60,29.27,12,1,12,0.30
2014-10-3,63.5,50.4,40.3,63.2,47.8,35.1,99,91,77,29.39,29.22,16,5,16,0.12
2014-10-4,45.1,40.8,35.4,42.5,38.0,34.6,99,90,70,29.35,29.25,12,3,12,0.08
2014-10-5,51.6,42.8,34.9,36.9,33.9,32.0,90,71,51,29.35,29.24,10,3,11,0.00
2014-10-6,57.7,46.0,34.9,42.4,35.4,29.4,99,70,35,29.25,29.18,11,3,13,0.00
2014-10-7,64.2,53.6,45.7,45.2,40.4,33.9,86,63,37,29.48,29.16,13,4,13,0.00
2014-10-8,57.4,46.3,36.3,37.3,33.7,31.8,88,63,41,29.70,29.48,12,4,13,0.00
2014-10-9,60.3,45.3,33.1,38.6,34.2,29.6,88,67,41,29.86,29.69,8,2,8,0.00
2014-10-10,63.1,46.3,32.7,41.4,34.1,28.6,99,67,31,29.92,29.83,6,1,7,0.00
2014-10-11,59.2,45.1,32.7,39.1,33.5,30.7,96,67,36,29.95,29.80,8,1,8,0.00
2014-10-12,63.5,47.2,33.3,48.4,38.3,31.6,97,74,39,29.80,29.59,17,3,17,0.01
2014-10-13,57.7,51.9,48.2,55.6,51.3,47.9,99,98,89,29.60,29.33,8,1,8,0.56
2014-10-14,55.2,51.4,48.9,52.3,49.9,47.2,99,95,81,29.49,29.20,20,5,20,0.47
2014-10-15,53.6,49.8,46.9,51.0,48.7,46.7,99,96,89,29.59,29.44,10,3,10,0.13
2014-10-16,66.2,53.1,46.8,53.5,49.9,46.5,99,90,62,29.58,29.26,7,1,7,0.00
2014-10-17,53.8,49.0,41.9,49.6,45.7,40.6,99,89,76,29.59,29.17,10,4,10,0.01
2014-10-18,55.6,44.2,33.3,42.8,36.8,31.2,99,77,46,29.86,29.58,8,3,8,0.12
2014-10-19,60.4,43.7,29.7,47.4,39.0,29.2,99,85,58,29.86,29.47,14,2,14,0.01
2014-10-20,50.9,47.1,45.0,46.1,44.9,43.3,98,92,83,29.57,29.45,5,2,5,0.00
2014-10-29,48.9,42.8,33.6,37.1,34.8,31.5,95,74,62,29.79,29.72,7,2,7,0.00
2014-10-30,53.2,40.0,30.7,39.3,35.0,30.3,99,84,57,29.80,29.71,8,2,8,0.00
2014-10-31,40.3,33.3,27.3,33.4,24.5,18.1,99,71,45,30.15,29.74,11,5,11,0.01
2014-11-1,50.5,33.1,21.4,26.6,22.2,17.9,88,66,34,30.18,30.02,6,1,6,0.00
2014-11-2,53.8,39.2,26.8,30.8,26.2,22.5,91,64,30,30.03,29.74,17,4,17,0.00
2014-11-3,72.7,44.8,36.0,45.4,33.8,24.6,90,66,52,29.91,29.47,14,2,14,0.00
2014-11-4,53.4,46.5,42.3,53.0,40.3,31.0,99,80,58,29.61,29.41,10,4,10,0.06
2014-11-5,43.7,39.1,33.1,38.9,33.9,27.5,99,82,64,29.76,29.53,8,3,8,0.19
2014-11-6,39.2,35.5,33.4,38.9,32.4,27.9,99,89,71,29.91,29.51,10,4,10,0.11
2014-11-7,42.8,37.1,32.9,33.7,30.6,27.4,93,78,59,29.87,29.39,13,4,13,0.01
2014-11-8,93.2,37.5,32.4,71.2,28.9,22.6,98,72,48,29.99,29.33,11,4,11,0.00
2014-11-9,37.8,33.1,29.1,35.7,30.6,24.9,99,91,72,29.92,29.77,7,2,7,0.11
2014-11-10,35.8,32.0,28.4,35.0,30.4,22.3,99,94,71,29.94,29.64,13,4,13,0.09
2014-11-11,93.2,30.5,26.8,71.2,29.0,22.9,99,94,49,30.03,29.73,8,3,8,0.04
2014-11-12,26.8,26.8,26.8,22.9,22.9,22.9,85,85,85,30.15,30.00,4,4,4,0.04
2014-11-13,93.2,27.7,19.0,71.2,21.7,15.8,91,79,48,30.14,29.59,6,4,7,0.04
2014-11-14,29.3,20.4,14.0,18.3,14.6,9.7,94,79,52,30.03,29.96,7,2,7,0.00
2014-11-15,23.4,16.3,14.2,18.2,12.6,10.3,95,85,69,30.03,29.86,5,1,5,0.00
2014-11-16,25.5,20.3,12.9,21.0,16.9,6.6,97,87,70,29.86,29.51,14,2,14,0.00
2014-11-17,93.2,26.1,12.9,71.2,17.2,6.6,75,71,49,30.08,29.43,4,4,5,0.00
2014-11-18,16.0,12.9,9.5,7.3,5.2,3.0,77,71,65,30.14,30.08,10,5,10,0.00
2014-11-19,93.2,24.1,12.2,71.2,17.5,5.3,90,76,48,30.09,29.92,79,4,79,0.00
2014-11-20,21.4,13.9,6.4,14.4,5.2,-0.6,90,68,49,30.37,29.96,9,4,9,0.00
2014-11-21,32.4,16.5,0.1,13.9,4.4,-3.9,85,61,33,30.48,30.14,14,4,14,0.00
2014-11-22,38.3,34.8,28.4,37.5,32.3,13.9,99,91,54,30.14,29.86,12,4,12,0.00
2014-11-23,49.3,45.4,37.9,49.0,44.3,37.7,99,96,83,29.86,29.34,13,2,13,0.19
2014-11-24,43.5,35.7,23.2,43.3,35.2,23.0,99,98,89,29.82,29.20,7,2,7,0.19
2014-11-25,31.3,19.1,8.1,24.0,17.5,7.0,99,93,75,30.29,29.82,0,0,0,0.00
2014-11-26,26.4,18.0,9.0,22.6,16.6,8.1,99,94,83,30.34,30.26,0,0,0,0.00
2014-11-27,30.2,15.0,-0.4,22.1,10.8,-2.8,99,84,54,30.51,30.33,3,0,3,0.00
2014-11-28,20.5,12.8,-0.4,20.1,10.7,-2.8,99,91,86,30.48,29.99,6,1,6,0.00
2014-11-29,36.7,28.6,20.5,35.0,28.1,20.3,99,98,92,30.00,29.62,8,1,8,0.05
2014-11-30,34.0,25.1,9.9,32.8,21.1,2.4,99,85,67,30.46,29.66,8,4,8,0.00
2014-12-1,16.7,5.5,-4.9,2.7,-3.9,-8.3,86,66,38,30.81,30.46,7,2,8,0.00
2014-12-2,28.8,15.1,-5.1,19.6,10.5,-8.1,90,82,62,30.70,30.08,11,2,11,0.00
2014-12-3,27.9,20.0,10.8,20.5,12.6,5.0,87,73,58,30.47,30.06,47,4,47,0.00
2014-12-4,26.4,16.4,7.2,12.0,8.7,2.6,85,72,50,30.55,30.37,11,1,11,0.00
2014-12-5,39.6,27.7,12.9,31.8,24.5,9.6,93,88,70,30.45,30.28,4,1,4,0.02
2014-12-6,43.0,27.1,14.0,27.1,18.7,10.9,98,74,31,30.81,30.45,6,2,6,0.01
2014-12-7,33.8,23.1,11.1,27.3,18.8,8.8,95,84,69,30.79,30.32,11,2,11,0.00
2014-12-8,33.6,31.9,28.6,33.4,31.1,25.0,99,97,78,30.33,30.06,12,2,12,0.00
2014-12-9,41.7,30.1,20.5,33.4,25.8,19.2,99,85,55,30.57,30.26,7,3,7,0.06
2014-12-10,23.9,20.4,17.8,20.9,18.9,16.6,99,94,83,30.57,30.42,6,2,6,0.00
2014-12-11,24.8,19.7,14.9,22.4,18.9,14.5,99,96,88,30.42,30.30,8,3,8,0.00
2014-12-12,32.9,29.2,22.6,32.7,28.9,22.4,99,99,97,30.38,30.29,9,4,9,0.02
2014-12-13,41.2,37.9,31.8,40.9,37.7,31.6,99,99,99,30.30,30.14,11,3,11,0.04
2014-12-14,43.5,42.0,40.1,43.3,41.8,39.8,99,99,99,30.15,30.06,4,1,4,0.00
2014-12-15,43.9,41.9,39.7,43.6,41.6,39.5,99,99,97,30.07,29.85,9,1,9,0.15
2014-12-16,39.9,33.5,25.2,39.7,32.0,19.8,99,94,78,30.23,29.82,11,1,11,0.18
2014-12-17,27.5,22.7,19.4,21.7,16.8,12.8,87,78,61,30.40,30.23,0,0,0,0.00
2014-12-18,28.2,23.4,17.2,22.2,20.0,16.3,96,87,75,30.44,30.36,0,0,0,0.00
2014-12-19,39.6,22.4,13.3,25.4,18.4,12.9,99,86,52,30.44,30.38,8,1,8,0.00
2014-12-20,30.0,26.4,22.3,27.3,24.2,20.6,99,92,83,30.39,30.32,6,1,7,0.00
2014-12-21,34.5,31.2,27.5,34.1,30.9,27.3,99,99,94,30.32,30.06,14,4,14,0.01
2014-12-22,36.5,33.8,32.2,34.2,32.7,31.6,99,96,89,30.06,29.83,12,4,12,0.00
2014-12-23,35.8,33.6,32.4,35.5,33.4,32.1,99,99,99,29.88,29.72,4,0,4,0.44
2014-12-24,34.5,33.3,32.5,34.3,32.8,31.2,99,98,94,29.89,29.65,4,1,4,0.15
2014-12-25,35.2,32.3,28.4,31.7,30.1,28.2,99,92,84,30.06,29.69,10,1,10,0.01
2014-12-26,33.6,30.1,25.7,33.4,29.9,25.3,99,99,99,30.17,30.03,4,0,4,0.01
2014-12-27,34.0,30.9,20.8,33.2,29.7,18.5,99,95,85,30.22,29.95,7,1,7,0.14
2014-12-28,31.8,19.8,13.3,20.9,16.5,11.0,96,87,62,30.42,30.19,0,0,0,0.00
2014-12-29,20.7,10.7,2.7,11.0,5.4,-1.0,92,79,55,30.69,30.42,0,0,0,0.00
2014-12-30,10.0,1.6,-4.0,-0.7,-5.6,-8.7,85,71,54,30.78,30.67,0,0,0,0.00
2014-12-31,16.2,5.1,-6.2,5.6,-2.3,-9.6,84,72,51,30.67,30.08,15,3,15,0.00
2015-1-1,23.5,16.9,10.6,18.4,12.8,4.3,92,84,75,30.22,29.94,12,5,12,0.00
2015-1-2,28.8,16.6,4.8,16.6,4.9,-0.7,92,61,34,30.41,30.22,8,2,8,0.00